sat.trackr.live / text

‹ back to catalog

STARLINK-5628

NORAD 55466 · 2023-015T

PAYLOAD ACTIVE UNKNOWN

§ Identity

Operator
Country
US
Launch date
2023-02-02
Launch site
AFETR
Launch vehicle
Mass (kg)
RCS (m²)

Purposes: comms

External: N2YO · Heavens-Above · Gunter

§ Orbital elements

Epoch: 2026-09-20T10:19:50.778048Z

Period
94.27 min
Inclination
43.0032°
Eccentricity
0.0001143
Mean motion
15.27581862 rev/d
Perigee alt
482.3 km
Apogee alt
483.8 km
Semi-major
6,861.2 km
B*
3.6601e-5
RAAN
309.0516°
Arg perigee
272.1141°
Mean anomaly
87.9579°
Rev number
20,050

§ Raw data

STARLINK-56281 55466U 23015T   26263.43044882  .00000745  00000+0  36601-4 0  99942 55466  43.0032 309.0516 0001143 272.1141  87.9579 15.27581862200508

JSON: /api/v1/satellites/55466 · /tle

For live sub-satellite position, see the globe view (requires WebGL).

§ Visibility from observer

Set your observer location to see the next 7 days of passes ≥ 10°. The values pass through the URL so the page stays shareable.

No JS? Fill the form by hand. The geolocation button needs JavaScript.